WT9M-8 Weather Reports


time (UTC)temp
F
wind
direction
speed
knots
gust
knots
rain 1hr
in
rain 24hr
in
rain mn
in
humidity
%
barometer
mb
20260506171022 55 276 3.5 8.7 0.00 0.00 0.00 44 1014.9
20260506170040 56 237 3.5 9.6 0.00 0.00 0.00 48 1014.7
20260506165016 54 265 3.5 11.3 0.00 0.00 0.00 49 1014.9
20260506164032 54 225 3.5 12.2 0.00 0.00 0.00 48 1014.9
20260506163029 54 254 4.3 7.8 0.00 0.00 0.00 46 1014.8
20260506162047 53 267 3.5 9.6 0.00 0.00 0.00 47 1014.8
20260506161022 52 254 3.5 7.8 0.00 0.00 0.00 49 1014.8
20260506160019 52 255 2.6 7.0 0.00 0.00 0.00 48 1014.9
20260506155037 53 256 4.3 9.6 0.00 0.00 0.00 49 1014.8
20260506154032 52 265 3.5 7.0 0.00 0.00 0.00 46 1014.9
20260506153028 54 268 3.5 7.0 0.00 0.00 0.00 49 1014.8
20260506152025 52 243 3.5 7.0 0.00 0.00 0.00 49 1014.8
20260506151022 51 280 3.5 7.8 0.00 0.00 0.00 50 1014.9
20260506150018 52 272 4.3 8.7 0.00 0.00 0.00 51 1014.8
20260506145035 51 266 4.3 7.8 0.00 0.00 0.00 50 1014.9
20260506143027 50 261 4.3 8.7 0.00 0.00 0.00 53 1014.6
20260506142024 50 265 3.5 6.1 0.00 0.00 0.00 54 1014.5
20260506141021 50 260 3.5 7.0 0.00 0.00 0.00 57 1014.5
20260506140039 50 252 3.5 7.0 0.00 0.00 0.00 60 1014.5
20260506135056 49 255 2.6 6.1 0.00 0.00 0.00 63 1014.4
20260506134031 48 261 2.6 7.0 0.00 0.00 0.00 66 1014.3
20260506133027 46 275 3.5 6.1 0.00 0.00 0.00 68 1014.3
20260506132024 46 263 2.6 6.1 0.00 0.00 0.00 72 1014.1
20260506131022 45 245 2.6 5.2 0.00 0.00 0.00 77 1014.1
20260506130017 44 276 0.9 3.5 0.00 0.00 0.00 81 1014.0
20260506125034 41 207 0.9 1.7 0.00 0.00 0.00 85 1014.1
20260506124113 39 0.0 0.0 0.00 0.00 0.00 85 1013.7
20260506123047 36 86 0.9 2.6 0.00 0.00 0.00 86 1013.7
20260506122046 33 79 0.9 1.7 0.00 0.00 0.00 87 1013.9
20260506121021 30 83 1.7 1.7 0.00 0.00 0.00 88 1013.9
20260506120017 27 82 0.9 2.6 0.00 0.00 0.00 86 1013.8
20260506115054 26 0.0 0.0 0.00 0.00 0.00 85 1013.7
20260506114031 26 0.0 0.0 0.00 0.00 0.00 85 1013.5
20260506113047 26 0.0 0.0 0.00 0.00 0.00 85 1013.2
20260506112024 26 0.0 0.0 0.00 0.00 0.00 85 1012.9
20260506111020 26 0.0 0.0 0.00 0.00 0.00 84 1012.9
20260506110017 26 0.0 0.0 0.00 0.00 0.00 84 1012.9
20260506105034 26 0.0 0.0 0.00 0.00 0.00 84 1013.0
20260506104030 26 0.0 0.0 0.00 0.00 0.00 84 1012.9
20260506103027 26 0.0 0.0 0.00 0.00 0.00 84 1012.9
20260506102024 26 0.0 0.0 0.00 0.00 0.00 84 1013.0
20260506101020 26 0.0 0.0 0.00 0.00 0.00 84 1012.7
20260506100017 26 0.0 0.0 0.00 0.00 0.00 83 1012.5
20260506095034 26 0.0 0.0 0.00 0.00 0.00 83 1012.5
20260506094032 26 0.0 0.0 0.00 0.00 0.00 83 1012.5
20260506093027 26 0.0 0.0 0.00 0.00 0.00 83 1012.4
20260506092024 26 0.0 0.0 0.00 0.00 0.00 83 1012.4
20260506091020 26 0.0 0.0 0.00 0.00 0.00 83 1012.5
20260506090018 27 0.0 0.0 0.00 0.00 0.00 82 1012.3
20260506085034 27 0.0 0.0 0.00 0.00 0.00 82 1012.2
20260506084030 27 0.0 0.0 0.00 0.00 0.00 82 1012.2
20260506083049 27 0.0 0.0 0.00 0.00 0.00 83 1012.1
20260506082025 28 0.0 0.0 0.00 0.00 0.00 82 1012.2
20260506081020 28 0.0 0.0 0.00 0.00 0.00 83 1012.1
20260506073026 28 0.0 0.0 0.00 0.00 0.00 80 1011.6
20260506072024 29 0.0 0.0 0.00 0.00 0.00 80 1011.6
20260506071019 29 0.0 0.0 0.00 0.00 0.00 80 1011.4
20260506062022 30 0.0 0.0 0.00 0.00 0.00 79 1011.8
20260506061020 30 0.0 0.0 0.00 0.00 0.00 78 1011.8
20260506051018 32 0.0 0.0 0.00 0.00 0.00 75 1011.3
20260506045032 33 0.0 0.0 0.00 0.00 0.00 74 1011.3
20260506044048 34 0.0 0.0 0.00 0.00 0.00 75 1011.3
20260506043025 34 0.0 0.0 0.00 0.00 0.00 75 1011.4
20260506042024 34 0.0 0.0 0.00 0.00 0.00 74 1011.3
20260506041018 34 87 0.0 0.9 0.00 0.00 0.00 74 1011.2
20260506040035 34 79 0.9 1.7 0.00 0.00 0.00 74 1011.3
20260506035032 34 91 0.0 1.7 0.00 0.00 0.00 72 1011.1
20260506034030 35 91 0.9 0.9 0.00 0.00 0.00 72 1011.1
20260506033026 35 90 0.9 1.7 0.00 0.00 0.00 73 1011.0
20260506032022 36 88 0.9 1.7 0.00 0.00 0.00 72 1011.1
20260506031018 36 83 1.7 1.7 0.00 0.00 0.00 72 1011.0
20260506030035 36 80 1.7 1.7 0.00 0.00 0.00 71 1011.0
20260506025032 37 94 0.9 1.7 0.00 0.00 0.00 69 1010.9
20260506024028 38 86 1.7 1.7 0.00 0.00 0.00 69 1010.9
20260506023025 38 84 1.7 2.6 0.00 0.00 0.00 68 1010.6
20260506022041 39 91 0.9 1.7 0.00 0.00 0.00 65 1010.4
20260506021018 40 91 0.9 1.7 0.00 0.00 0.00 64 1010.1
20260506020035 41 82 0.9 1.7 0.00 0.00 0.00 62 1010.2
20260506015031 42 79 0.9 1.7 0.00 0.00 0.00 59 1009.8
20260506014028 42 89 0.9 0.9 0.00 0.00 0.00 58 1009.8
20260506013024 43 70 0.9 2.6 0.00 0.00 0.00 56 1009.7
20260506012021 45 86 0.0 0.9 0.00 0.00 0.00 53 1009.7
20260506011018 46 0.0 0.0 0.00 0.00 0.00 50 1009.6
20260506010034 46 225 0.0 0.9 0.00 0.00 0.00 48 1009.6
20260506005030 47 232 0.9 1.7 0.00 0.00 0.00 47 1009.5
20260506004027 49 234 1.7 5.2 0.00 0.00 0.00 46 1009.5
20260506003042 50 236 1.7 5.2 0.00 0.00 0.00 45 1009.5
20260506002018 50 257 0.9 2.6 0.00 0.00 0.00 45 1009.4
20260506001035 51 261 1.7 5.2 0.00 0.00 0.00 44 1009.4
20260506000033 51 253 1.7 6.1 0.00 0.00 0.00 43 1009.4
20260505235028 52 258 1.7 3.5 0.00 0.00 0.00 43 1009.3
20260505234025 52 266 1.7 2.6 0.00 0.00 0.00 42 1009.3
20260505233023 53 272 2.6 8.7 0.00 0.00 0.00 41 1009.3
20260505222035 57 276 3.5 7.0 0.00 0.00 0.00 37 1009.3
20260505221052 58 259 5.2 18.2 0.00 0.00 0.00 36 1009.1
20260505220028 59 246 4.3 8.7 0.00 0.00 0.00 37 1009.3
20260505215025 58 260 4.3 9.6 0.00 0.00 0.00 38 1009.2
20260505214022 57 247 3.5 7.0 0.00 0.00 0.00 38 1009.3
20260505213018 57 253 3.5 7.0 0.00 0.00 0.00 37 1009.2
20260505212035 59 244 5.2 13.0 0.00 0.00 0.00 35 1009.2
20260505211031 61 254 4.3 13.0 0.00 0.00 0.00 35 1009.4
20260505210028 63 251 4.3 8.7 0.00 0.00 0.00 35 1009.3
20260505205025 64 235 5.2 12.2 0.00 0.00 0.00 36 1009.5
20260505204043 64 246 6.1 12.2 0.00 0.00 0.00 35 1009.5
20260505203018 63 242 7.0 15.6 0.00 0.00 0.00 36 1009.6
20260505202035 62 251 7.0 13.0 0.00 0.00 0.00 36 1009.7
20260505201033 58 253 7.0 15.6 0.00 0.00 0.00 39 1009.8
20260505200028 56 239 5.2 14.8 0.00 0.00 0.00 40 1009.8
20260505195024 56 243 4.3 12.2 0.00 0.00 0.00 39 1009.7
20260505194021 58 251 5.2 13.0 0.00 0.00 0.00 37 1009.7
20260505193018 58 274 4.3 12.2 0.00 0.00 0.00 36 1009.9
20260505192054 60 257 5.2 13.0 0.00 0.00 0.00 37 1009.9
20260505191031 60 248 5.2 12.2 0.00 0.00 0.00 39 1009.8
20260505190029 59 234 5.2 11.3 0.00 0.00 0.00 38 1010.0
20260505185044 60 265 6.1 13.9 0.00 0.00 0.00 35 1010.0
20260505184021 61 261 5.2 13.0 0.00 0.00 0.00 35 1009.9
20260505183018 59 253 4.3 11.3 0.00 0.00 0.00 37 1009.8
20260505182034 60 288 6.1 13.0 0.00 0.00 0.00 35 1009.7
20260505181031 60 247 4.3 7.8 0.00 0.00 0.00 37 1009.4
20260505180028 60 261 6.1 13.0 0.00 0.00 0.00 36 1009.4
20260505175025 60 275 6.1 12.2 0.00 0.00 0.00 36 1009.4
20260505174020 61 230 5.2 9.6 0.00 0.00 0.00 37 1009.4
20260505173017 62 228 7.0 14.8 0.00 0.00 0.00 38 1009.4
20260505172034 61 222 4.3 9.6 0.00 0.00 0.00 39 1009.4